Change the Weather History Date:

Saturday, October 26, 2013

  Actual Average Record
Temperature  
Mean Temperature 40 °F -  
Max Temperature 51 °F 57 °F 77 °F (1963)
Min Temperature 30 °F 37 °F 20 °F (1933)
Degree Days  
Heating Degree Days 24    
Moisture  
Dew Point 26 °F    
Average Humidity 64    
Maximum Humidity 86    
Minimum Humidity 28    
Precipitation  
Precipitation 0.00 in - - ()
Sea Level Pressure  
Sea Level Pressure 30.06 in    
Wind  
Wind Speed 8 mph (SW)    
Max Wind Speed 17 mph    
Max Gust Speed 25 mph    
Visibility 10 miles    
Events      
Averages and records for this station are not official NWS values.
T = Trace of Precipitation, MM = Missing Value Source: NWS Daily Summary

Daily Weather History Graph

Daily Weather History Graph

Search for Another Location

Airport or City:

Trip Planner

Search our weather history database for the weather conditions in past years. The results will help you decide how hot, cold, wet, or windy it might be!

Date:

Astronomy

Oct. 26, 2013 Rise Set
Actual Time 7:35 AM EDT 6:14 PM EDT
Civil Twilight 7:07 AM EDT 6:42 PM EDT
Nautical Twilight 6:34 AM EDT 7:14 PM EDT
Astronomical Twilight 6:03 AM EDT 7:46 PM EDT
Moon No Moon Rise 1:50 PM EDT (10/26)
Length of Visible Light 11h 35m
Length of Day
10h 39m
Waning Gibbous, 53% of the Moon is Illuminated
Oct 26
Waning Gibbous
Oct 26
Last Quarter
Nov 3
New
Nov 10
First Quarter
Nov 17
Full

Hourly Weather History & Observations

Time (EDT) Temp. Windchill Dew Point Humidity Pressure Visibility Wind Dir Wind Speed Gust Speed Precip Events Conditions
12:15 AM 32.5 °F 29.3 °F 28.0 °F 83% 30.22 in 10.0 mi SSW 3.5 mph - N/A   Clear
12:35 AM 32.0 °F 28.7 °F 28.0 °F 85% 30.21 in 10.0 mi SSW 3.5 mph - N/A   Clear
12:55 AM 32.9 °F 28.5 °F 28.0 °F 82% 30.21 in 10.0 mi SW 4.6 mph - N/A   Scattered Clouds
1:15 AM 33.8 °F 28.6 °F 28.2 °F 80% 30.20 in 10.0 mi WSW 5.8 mph - N/A   Scattered Clouds
1:35 AM 32.9 °F 26.7 °F 28.0 °F 82% 30.21 in 10.0 mi West 6.9 mph - N/A   Scattered Clouds
1:55 AM 32.7 °F 26.4 °F 28.0 °F 83% 30.22 in 10.0 mi West 6.9 mph - N/A   Clear
2:15 AM 32.9 °F 26.7 °F 28.0 °F 82% 30.21 in 10.0 mi WSW 6.9 mph - N/A   Mostly Cloudy
2:35 AM 32.7 °F 27.3 °F 28.0 °F 83% 30.21 in 10.0 mi WSW 5.8 mph - N/A   Mostly Cloudy
2:55 AM 31.8 °F 28.5 °F 27.3 °F 83% 30.20 in 10.0 mi SW 3.5 mph - N/A   Scattered Clouds
3:15 AM 32.0 °F 27.5 °F 27.7 °F 84% 30.20 in 10.0 mi WSW 4.6 mph - N/A   Scattered Clouds
3:35 AM 30.9 °F - 27.0 °F 85% 30.19 in 10.0 mi Calm Calm - N/A   Scattered Clouds
3:55 AM 31.5 °F 26.8 °F 27.1 °F 84% 30.18 in 10.0 mi WSW 4.6 mph - N/A   Scattered Clouds
4:15 AM 31.6 °F 26.0 °F 27.5 °F 85% 30.18 in 10.0 mi SW 5.8 mph - N/A   Clear
4:35 AM 32.0 °F 26.4 °F 27.3 °F 83% 30.17 in 10.0 mi SW 5.8 mph - N/A   Scattered Clouds
4:55 AM 32.0 °F 25.6 °F 28.0 °F 85% 30.17 in 10.0 mi WSW 6.9 mph - N/A   Scattered Clouds
5:15 AM 31.3 °F 24.7 °F 27.1 °F 85% 30.16 in 10.0 mi SW 6.9 mph - N/A   Scattered Clouds
5:35 AM 31.6 °F 25.1 °F 27.3 °F 84% 30.15 in 10.0 mi SW 6.9 mph - N/A   Scattered Clouds
5:53 AM 32.0 °F 25.6 °F 26.6 °F 80% 30.14 in 10.0 mi WSW 6.9 mph - N/A   Clear
6:53 AM 30.2 °F 24.3 °F 26.6 °F 86% 30.13 in 10.0 mi WSW 5.8 mph - N/A   Clear
7:53 AM 30.2 °F 22.6 °F 26.6 °F 86% 30.11 in 10.0 mi SW 8.1 mph - N/A   Clear
8:53 AM 35.6 °F 27.5 °F 28.4 °F 75% 30.13 in 10.0 mi SW 11.5 mph - N/A   Clear
9:53 AM 39.2 °F 35.0 °F 26.6 °F 61% 30.11 in 10.0 mi SSW 5.8 mph - N/A   Clear
10:53 AM 42.8 °F 34.8 °F 28.4 °F 57% 30.07 in 10.0 mi WSW 17.3 mph - N/A   Clear
11:53 AM 46.4 °F 39.5 °F 26.6 °F 46% 30.04 in 10.0 mi SSW 17.3 mph - N/A   Clear
12:53 PM 50.0 °F - 24.8 °F 37% 30.01 in 10.0 mi WSW 17.3 mph - N/A   Clear
2:53 PM 51.8 °F - 21.2 °F 30% 29.91 in 10.0 mi SSW 15.0 mph 21.9 mph N/A   Clear
3:53 PM 51.8 °F - 21.2 °F 30% 29.90 in 10.0 mi SW 13.8 mph 21.9 mph N/A   Mostly Cloudy
4:53 PM 51.8 °F - 19.4 °F 28% 29.89 in 10.0 mi SW 12.7 mph 18.4 mph N/A   Overcast
5:53 PM 50.0 °F - 19.4 °F 30% 29.89 in 10.0 mi SW 10.4 mph - N/A   Overcast
6:53 PM 50.0 °F - 21.2 °F 32% 29.88 in 10.0 mi SW 15.0 mph 25.3 mph N/A   Overcast
7:53 PM 50.0 °F - 23.0 °F 35% 29.88 in 10.0 mi WSW 17.3 mph 23.0 mph N/A   Overcast
8:53 PM 48.2 °F - 26.6 °F 43% 29.90 in 10.0 mi West 16.1 mph - N/A   Overcast
9:35 PM 46.9 °F - 26.6 °F 45% 29.90 in 10.0 mi WSW 11.5 mph - N/A   Overcast
9:55 PM 46.8 °F - 26.6 °F 45% 29.90 in 10.0 mi WSW 12.7 mph 21.9 mph N/A   Overcast
10:15 PM 46.6 °F - 26.4 °F 45% 29.90 in 10.0 mi WSW 11.5 mph 18.4 mph N/A   Overcast
10:35 PM 46.6 °F - 26.8 °F 46% 29.90 in 10.0 mi SW 16.1 mph 21.9 mph N/A   Overcast
10:55 PM 46.6 °F - 27.3 °F 47% 29.91 in 10.0 mi WSW 15.0 mph - N/A   Overcast
11:15 PM 46.2 °F 39.8 °F 29.3 °F 52% 29.91 in 10.0 mi WSW 15.0 mph 23.0 mph N/A   Overcast
11:35 PM 46.0 °F 39.9 °F 29.3 °F 52% 29.91 in 10.0 mi West 13.8 mph 19.6 mph N/A   Overcast
11:55 PM 45.9 °F 40.8 °F 29.7 °F 53% 29.91 in 10.0 mi WSW 10.4 mph 16.1 mph N/A   Overcast